#timestamp,LO_Frequency,Hit,Temp,Hum 
1479355215.6,286046986.1,N,0.0,0.0
1479355235.4,286046986.5,N,0.0,0.0
1479355255.3,286046983.8,N,0.0,0.0
1479355275.1,286046984.3,N,0.0,0.0
1479355295.8,286046982.8,N,0.0,0.0
1479355315.7,286046982.9,N,0.0,0.0
1479355335.5,286046981.0,N,0.0,0.0
1479355355.4,286046979.5,N,0.0,0.0
1479355375.2,286046977.4,N,0.0,0.0
1479355395.0,286046977.7,N,0.0,0.0
1479355395.9,286046977.7,N,0.0,0.0
1479355415.8,286046978.7,N,0.0,0.0
1479355435.6,286046976.6,N,0.0,0.0
1479355455.4,286046977.0,N,0.0,0.0
1479355475.3,286046975.9,N,0.0,0.0
1479355495.1,286046974.5,N,0.0,0.0
1479355515.9,286046974.9,N,0.0,0.0
1479355535.7,286046975.4,N,0.0,0.0
1479355555.5,286046975.0,N,0.0,0.0
1479355575.4,286046973.7,N,0.0,0.0
1479355595.2,286046973.3,N,0.0,0.0
1479355615.0,286046973.5,N,0.0,0.0
1479355616.0,286046973.5,N,0.0,0.0
1479355635.8,286046974.0,N,0.0,0.0
1479355655.6,286046971.7,N,0.0,0.0
1479355675.5,286046972.1,N,0.0,0.0
1479355695.3,286046969.6,N,0.0,0.0
1479355715.1,286046969.7,N,0.0,0.0
1479355735.9,286046970.6,N,0.0,0.0
1479355755.7,286046967.9,N,0.0,0.0
1479355775.5,286046968.5,N,0.0,0.0
1479355795.4,286046968.1,N,0.0,0.0
1479355815.2,286046969.2,N,0.0,0.0
1479355835.1,286046967.3,N,0.0,0.0
1479355836.0,286046967.3,N,0.0,0.0
1479355855.8,286046967.5,N,0.0,0.0
1479355875.6,286046966.9,N,0.0,0.0
1479355895.5,286046967.2,N,0.0,0.0
1479355915.3,286046967.6,N,0.0,0.0
1479355935.1,286046967.4,N,0.0,0.0
1479355955.9,286046966.7,N,0.0,0.0
1479355975.7,286046967.4,N,0.0,0.0
1479355995.6,286046967.6,N,0.0,0.0
1479356015.4,286046967.6,N,0.0,0.0
1479356035.2,286046967.2,N,0.0,0.0
1479356055.1,286046965.4,N,0.0,0.0
1479356056.0,286046965.4,N,0.0,0.0
1479356075.8,286046965.4,N,0.0,0.0
1479356095.7,286046965.6,N,0.0,0.0
1479356115.5,286046965.2,N,0.0,0.0
1479356135.3,286046964.2,N,0.0,0.0
1479356155.2,286046961.8,N,0.0,0.0
1479356175.0,286046961.3,N,0.0,0.0
1479356175.9,286046961.3,N,0.0,0.0
1479356195.8,286046963.9,N,0.0,0.0
1479356215.6,286046961.6,N,0.0,0.0
1479356235.4,286046962.1,N,0.0,0.0
1479356255.3,286046961.5,N,0.0,0.0
1479356275.1,286046962.2,N,0.0,0.0
1479356295.8,286046958.3,N,0.0,0.0
1479356315.7,286046958.9,N,0.0,0.0
1479356335.5,286046958.4,N,0.0,0.0
1479356355.4,286046961.1,N,0.0,0.0
1479356375.2,286046958.6,N,0.0,0.0
1479356395.0,286046958.2,N,0.0,0.0
1479356395.9,286046958.2,N,0.0,0.0
1479356415.8,286046958.8,N,0.0,0.0
1479356435.6,286046958.7,N,0.0,0.0
1479356455.5,286046959.6,N,0.0,0.0
1479356475.3,286046956.7,N,0.0,0.0
1479356495.1,286046957.1,N,0.0,0.0
1479356515.9,286046956.6,N,0.0,0.0
1479356535.7,286046955.1,N,0.0,0.0
1479356555.5,286046955.7,N,0.0,0.0
1479356575.4,286046956.2,N,0.0,0.0
1479356595.2,286046955.2,N,0.0,0.0
1479356615.1,286046953.8,N,0.0,0.0
1479356616.0,286046953.8,N,0.0,0.0
1479356635.8,286046953.6,N,0.0,0.0
1479356655.6,286046954.5,N,0.0,0.0
1479356675.5,286046954.5,N,0.0,0.0
1479356695.3,286046954.7,N,0.0,0.0
1479356715.1,286046954.7,N,0.0,0.0
1479356735.9,286046952.1,N,0.0,0.0
1479356755.7,286046951.9,N,0.0,0.0
1479356775.6,286046952.6,N,0.0,0.0
1479356795.4,286046952.6,N,0.0,0.0
1479356815.2,286046953.1,N,0.0,0.0
1479356835.1,286046950.2,N,0.0,0.0
1479356836.0,286046950.2,N,0.0,0.0
1479356855.8,286046950.6,N,0.0,0.0
1479356875.6,286046951.2,N,0.0,0.0
1479356895.5,286046951.4,N,0.0,0.0
1479356915.3,286046950.8,N,0.0,0.0
1479356935.2,286046948.6,N,0.0,0.0
1479356955.9,286046948.8,N,0.0,0.0
1479356975.7,286046949.7,N,0.0,0.0
1479356995.6,286046948.8,N,0.0,0.0
1479357015.4,286046949.8,N,0.0,0.0
1479357035.3,286046947.5,N,0.0,0.0
1479357055.1,286046950.0,N,0.0,0.0
1479357075.8,286046949.8,N,0.0,0.0
1479357095.7,286046947.0,N,0.0,0.0
1479357115.5,286046946.9,N,0.0,0.0
1479357135.4,286046947.2,N,0.0,0.0
1479357155.2,286046947.4,N,0.0,0.0
1479357175.0,286046945.7,N,0.0,0.0
1479357175.9,286046945.7,N,0.0,0.0
1479357195.8,286046948.0,N,0.0,0.0
1479357215.6,286046945.4,N,0.0,0.0
1479357235.4,286046945.8,N,0.0,0.0
1479357255.3,286046946.3,N,0.0,0.0
1479357275.1,286046944.3,N,0.0,0.0
1479357295.9,286046943.9,N,0.0,0.0
1479357315.7,286046946.1,N,0.0,0.0
1479357335.5,286046943.8,N,0.0,0.0
1479357355.4,286046943.8,N,0.0,0.0
1479357375.2,286046944.3,N,0.0,0.0
1479357395.0,286046943.7,N,0.0,0.0
1479357396.0,286046943.7,N,0.0,0.0
1479357415.8,286046943.9,N,0.0,0.0
1479357435.6,286046944.7,N,0.0,0.0
1479357455.5,286046944.7,N,0.0,0.0
1479357475.3,286046944.9,N,0.0,0.0
1479357495.1,286046942.6,N,0.0,0.0
1479357515.9,286046944.8,N,0.0,0.0
1479357535.7,286046945.2,N,0.0,0.0
1479357555.6,286046945.0,N,0.0,0.0
1479357575.4,286046942.7,N,0.0,0.0
1479357595.2,286046942.4,N,0.0,0.0
1479357615.1,286046940.9,N,0.0,0.0
1479357616.0,286046940.9,N,0.0,0.0
1479357635.8,286046941.1,N,0.0,0.0
1479357655.6,286046941.9,N,0.0,0.0
1479357675.5,286046939.1,N,0.0,0.0
1479357695.3,286046939.1,N,0.0,0.0
1479357715.2,286046939.0,N,0.0,0.0
1479357735.9,286046939.7,N,0.0,0.0
1479357755.7,286046940.4,N,0.0,0.0
1479357775.6,286046937.3,N,0.0,0.0
1479357795.4,286046937.3,N,0.0,0.0
1479357815.2,286046938.4,N,0.0,0.0
1479357835.1,286046936.2,N,0.0,0.0
1479357836.0,286046936.2,N,0.0,0.0
1479357855.8,286046936.0,N,0.0,0.0
1479357875.7,286046938.7,N,0.0,0.0
1479357895.5,286046936.6,N,0.0,0.0
1479357915.3,286046936.5,N,0.0,0.0
1479357935.2,286046937.2,N,0.0,0.0
1479357955.0,286046936.0,N,0.0,0.0
1479357955.9,286046936.0,N,0.0,0.0
1479357975.8,286046936.6,N,0.0,0.0
1479357995.6,286046934.3,N,0.0,0.0
1479358015.4,286046934.1,N,0.0,0.0
1479358035.3,286046935.8,N,0.0,0.0
1479358055.1,286046936.9,N,0.0,0.0
1479358075.8,286046934.2,N,0.0,0.0
1479358095.7,286046934.3,N,0.0,0.0
1479358115.5,286046934.9,N,0.0,0.0
1479358135.4,286046935.6,N,0.0,0.0
1479358155.2,286046932.9,N,0.0,0.0
1479358175.0,286046932.5,N,0.0,0.0
1479358175.9,286046932.5,N,0.0,0.0
1479358195.8,286046935.3,N,0.0,0.0
1479358215.6,286046933.0,N,0.0,0.0
1479358235.4,286046933.3,N,0.0,0.0
1479358255.3,286046933.4,N,0.0,0.0
1479358275.1,286046933.6,N,0.0,0.0
1479358295.9,286046932.1,N,0.0,0.0
1479358315.7,286046931.5,N,0.0,0.0
1479358335.5,286046931.1,N,0.0,0.0
1479358355.4,286046931.2,N,0.0,0.0
1479358375.2,286046931.7,N,0.0,0.0
1479358395.0,286046931.5,N,0.0,0.0
1479358396.0,286046931.5,N,0.0,0.0
1479358415.8,286046932.0,N,0.0,0.0
1479358435.6,286046931.9,N,0.0,0.0
1479358455.5,286046929.6,N,0.0,0.0
1479358475.3,286046929.6,N,0.0,0.0
1479358495.1,286046929.6,N,0.0,0.0
1479358515.9,286046932.3,N,0.0,0.0
1479358535.7,286046930.2,N,0.0,0.0
1479358555.6,286046930.2,N,0.0,0.0
1479358575.4,286046930.3,N,0.0,0.0
1479358595.2,286046928.1,N,0.0,0.0
1479358615.1,286046926.6,N,0.0,0.0
1479358616.0,286046926.6,N,0.0,0.0
1479358635.8,286046926.5,N,0.0,0.0
1479358655.6,286046928.9,N,0.0,0.0
1479358675.5,286046928.1,N,0.0,0.0
1479358695.3,286046928.9,N,0.0,0.0
1479358715.2,286046928.7,N,0.0,0.0
1479358735.9,286046926.2,N,0.0,0.0
1479358755.7,286046926.1,N,0.0,0.0
1479358775.6,286046926.8,N,0.0,0.0
1479358795.4,286046926.9,N,0.0,0.0
